Regional Weather Roundup
Issued by NWS

Home | Current Version | Previous Version | Text Only | Print | Product List | Glossary On
Versions: 1 2 3 4 5 6 7 8 9 10 11 12 13 14 15 16 17 18 19 20 21 22 23 24 25 26 27 28 29 30 31 32 33 34 35 36 37 38 39 40 41 42 43 44 45 46 47 48 49 50
000
ASUS42 KKEY 010510
RWRKEY

FLORIDA REGIONAL WEATHER ROUNDUP FOR THE FLORIDA KEYS
NATIONAL WEATHER SERVICE KEY WEST FLORIDA
100 AM EDT WED OCT 01 2014

...SOUTH FLORIDA AND THE KEYS...

CITY           SKY/WX    TMP DP  RH WIND       PRES   REMARKS
FORT MYERS     PTCLDY    78  77  96 CALM      29.86F
SW REGIONAL AP CLEAR     77  75  93 S5        29.87F
NAPLES         CLEAR     83  75  77 SW7       29.87F HX  90
MIAMI          MOCLDY    81  76  84 SW3       29.89F
WEST KENDALL   CLEAR     79  76  90 SW3       29.89F
HOMESTEAD      CLEAR     78  75  92 SW5       29.89F
MARATHON       CLEAR     80  75  84 CALM      29.90S
BOCA CHICA NAS CLEAR     83  74  74 W3        29.90F
KEY WEST INTL  CLEAR     82  75  79 CALM      29.91S

...INTERNATIONAL WEATHER...

CITY           SKY/WX    TMP DP  RH WIND       PRES   REMARKS
NASSAU BAHAMAS PTCLDY    81  75  83 SW5       29.91F
CANCUN MEXICO  PTCLDY    82  77  83 E5        29.89S HX  91
COZUMEL MEXICO CLEAR     73  73 100 CALM      29.88F

ADJACENT COASTAL WATERS...

STATION/POSITION TIME  SKY/WX   TEMP    WIND        PRES    WAVE
                                AIR SEA DIR/SP/G            HT/PER
                 (UTC)          (F)     (DEG/KT/KT) (MB)    (FT/S)
PULASKI SHOAL LI 0400            84      CALM  /  1 1012.7R
SAND KEY         0436            83     230/  2/  3 1012.7F
SOMBRERO KEY     0500            84     280/  2/  2 1013.3S
LONG KEY         0400            84 87  280/  6/  7 1013.3F
MOLASSES REEF    0500            84 85  270/  5/  5 1012.4F
FOWEY ROCKS      0500            83 85  260/ 10/ 11 1012.5F
Buoy 42080       NOT AVBL

$$



USA.gov is the U.S. government's official web portal to all federal, state and local government web resources and services.